Location: Grandview
(34.8900°N, 117.1058°W)
Time: 00:08:51
(UTC-07:00)

Vanguard 1 Rocket - Visible Passes

Search period start: 20 October 2017 00:00
Search period end: 30 October 2017 00:00
Orbit: 655 x 4222 km, 34.3° (Epoch: 19 October)

Date Brightness Start Highest point End Pass type
(mag) Time Alt. Az. Time Alt. Az. Time Alt. Az.
20 Oct 10.9 03:45:56 10° S 03:50:29 12° SSE 03:54:16 10° SE visible
20 Oct 9.4 06:08:23 10° SW 06:17:52 34° SSE 06:23:31 10° E visible
21 Oct 10.1 04:56:01 10° SSW 05:06:12 26° SSE 05:12:32 10° ESE visible
22 Oct 10.6 03:44:27 10° S 03:54:00 19° SSE 04:00:36 10° ESE visible
22 Oct 9.1 06:10:31 10° SW 06:21:16 45° SSE 06:27:15 10° E visible
23 Oct 11.1 02:38:05 12° SSE 02:41:15 13° SSE 02:46:12 10° SE visible
23 Oct 9.7 04:57:22 10° SW 05:09:36 35° SSE 05:16:35 10° E visible
24 Oct 10.3 03:49:28 18° S 03:57:25 27° SSE 04:05:18 10° E visible
24 Oct 8.8 06:12:55 10° WSW 06:24:37 56° SSE 06:30:50 10° E visible
25 Oct 10.9 02:43:17 19° SSE 02:44:41 19° SSE 02:52:47 10° ESE visible
25 Oct 9.4 05:00:40 13° SW 05:12:57 45° SSE 05:20:21 10° E visible
26 Oct 10.0 03:54:20 26° SSW 04:00:45 35° SSE 04:09:25 10° E visible
26 Oct 8.6 06:15:34 10° WSW 06:27:57 68° SSE 06:34:20 10° E visible
27 Oct 10.6 02:47:54 27° SSE 02:48:01 27° SSE 02:57:39 10° E visible
27 Oct 9.2 05:05:15 19° SW 05:16:16 55° SSE 05:23:58 10° E visible
28 Oct 11.1 01:41:21 15° ESE 01:41:21 15° ESE 01:44:15 10° ESE visible
28 Oct 9.8 03:58:42 35° SSW 04:04:03 44° SSE 04:13:13 10° E visible
28 Oct 8.5 06:18:22 10° WSW 06:31:16 77° S 06:37:49 10° E visible
29 Oct 10.3 02:52:03 35° SE 02:52:03 35° SE 03:01:53 10° E visible
29 Oct 9.0 05:09:23 23° SW 05:19:31 66° SSE 05:27:28 10° E visible
